x

La Perouse Bank (46206) Wave Buoy

3:00 - Tue 29th Jul 2014 All times are PDT. -7 hours from GMT.

  • Sig Wave height 2.3ft
  • Peak Period 8s
  • Wind
    13mph, 16mph gusts
  • Sea Temp 57°f
  • Air Temp 58°f
  • Sea Pressure 1020.7mb
  • La Perouse Bank
  • La Perouse Bank

More Historic Weather Station data

Upgrade to MSW Pro to gain access to the past 30 days of data for over 8000 Wavebouys and Weather Stations around the globe.

Join Pro

Comparision Forecast

View Surf forecast
   
mar. 07/29 3:00 2.5ft 8s 13 16 mph 1020.7mb 57f 58f
2:00 2.5ft 8s 13 16 mph 1020.6mb 57f 58f
1:00 2.5ft 8s 13 16 mph 1020.7mb 57f 57f
12:00 2.5ft 8s 13 16 mph 1020.8mb 57f 57f
lun. 07/28 11:00 3ft 8s 13 18 mph 1020.9mb 58f 57f
10:00 3ft 8s 13 18 mph 1021.1mb 57f 57f
9:00 3.5ft 8s 18
mph
1021mb 57f 57f
8:00 3.5ft 4s 18 22 mph 1021.1mb 57f 57f
7:00 3.5ft 7s 16 20 mph 1021.4mb 57f 57f
6:00 3ft 6s 18 22 mph 1021.6mb 57f 58f
5:00 3ft 8s 11 13 mph 1021.8mb 58f 59f
4:00 3.5ft 8s 13 18 mph 1022.1mb 57f 58f
3:00 3ft 8s 16 18 mph 1022.2mb 56f 57f
2:00 3.5ft 8s 16 18 mph 1022.1mb 56f 57f
1:00 3.5ft 8s 11 13 mph 1022.2mb 56f 58f
12:00 3.5ft 8s 16 18 mph 1022.1mb 56f 56f
11:00 3.5ft 8s 13 16 mph 1021.9mb 56f 56f
10:00 3.5ft 7s 11 13 mph 1021.7mb 56f 56f
9:00 3.5ft 8s 11 16 mph 1021.7mb 56f 56f
8:00 3.5ft 8s 13 18 mph 1021.6mb 56f 56f
7:00 3.5ft 8s 16 18 mph 1021.5mb 56f 56f
6:00 3.5ft 8s 16 20 mph 1021.1mb 56f 56f
5:00 3.5ft 4s 16 18 mph 1020.8mb 56f 57f
4:00 3.5ft 4s 16 20 mph 1020.7mb 56f 57f
3:00 3.5ft 8s 18 22 mph 1020.7mb 56f 58f
2:00 3.5ft 8s 20 22 mph 1020.7mb 57f 58f
1:00 3.5ft 4s 18 20 mph 1021mb 57f 59f
12:00 4ft 9s 18 22 mph 1021.2mb 57f 59f
dim. 07/27 11:00 4ft 7s 16 20 mph 1021.3mb 57f 59f
10:00 4ft 8s 18 20 mph 1021.3mb 56f 59f
9:00 4ft 8s 18 22 mph 1021.3mb 57f 60f
8:00 4ft 8s 18 22 mph 1021.5mb 57f 60f
7:00 3.5ft 8s 18 20 mph 1021.8mb 57f 60f
6:00 3.5ft 8s 18 20 mph 1022.2mb 57f 60f
5:00 3.5ft 8s 16 18 mph 1022.5mb 57f 60f
4:00 3.5ft 8s 13 16 mph 1022.9mb 58f 59f
3:00 3.5ft 8s 13 16 mph 1023.2mb 57f 59f
2:00 3ft 8s 11 13 mph 1023.6mb 57f 59f
1:00 2.5ft 9s 11 13 mph 1023.7mb 57f 59f
12:00 3ft 9s 9 11 mph 1023.9mb 57f 59f
11:00 3.5ft 9s 7 9 mph 1024mb 57f 58f
10:00 3.5ft 8s 9
mph
1023.9mb 57f 58f
9:00 3.5ft 8s 7 9 mph 1024.1mb 56f 58f
8:00 3.5ft 8s 7 9 mph 1024.1mb 56f 58f
7:00 3.5ft 8s 9
mph
1023.7mb 56f 58f
6:00 3.5ft 8s 7
mph
1023.5mb 56f 58f
5:00 3.5ft 8s 7 9 mph 1023.3mb 56f 58f
4:00 3.5ft 8s 9
mph
1023.2mb 56f 58f
3:00 3.5ft 8s 7 9 mph 1023.2mb 57f 58f
2:00 3ft 8s 9 11 mph 1023.1mb 57f 58f
1:00 2.5ft 8s 9
mph
1023.1mb 56f 58f
12:00 2.5ft 8s 7
mph
1023.3mb 57f 58f
sam. 07/26 11:00 2.5ft 8s 9
mph
1023.2mb 57f 59f
10:00 2.5ft 8s 7 9 mph 1023.2mb 57f 58f
9:00 3ft 8s 7
mph
1023.2mb 58f 59f
8:00 3ft 8s 4 7 mph 1023.2mb 58f 59f
7:00 3ft 8s 4 7 mph 1023.3mb 56f 59f
6:00 3ft 8s 4 7 mph 1023.5mb 57f 59f
5:00 2.5ft 7s 4
mph
1023.6mb 56f 59f
4:00 2.5ft 7s 7
mph
1023.8mb 57f 59f
3:00 2.5ft 7s 4
mph
1024mb 56f 59f
2:00 2.5ft 7s 2 4 mph 1023.9mb 57f 59f
1:00 2.5ft 8s 4
mph
1023.8mb 57f 59f
12:00 2.5ft 7s 2 4 mph 1023.7mb 58f 58f
11:00 2.5ft 7s 2
mph
1023.5mb 60f 57f
10:00 2.5ft 7s 2 4 mph 1023.1mb 57f 55f
9:00 2.5ft 6s 2
mph
1022.9mb 56f 55f
8:00 2.5ft 7s  -  2 mph 1022.5mb 55f 54f
7:00 2.5ft 7s  -  2 mph 1022mb 55f 54f
6:00 2.5ft 7s 2
mph
1021.8mb 55f 54f
5:00 2.5ft 6s 2 4 mph 1021.4mb 55f 53f
4:00 2.5ft 6s 7
mph
1021.1mb 56f 54f
3:00 2.5ft 6s 7
mph
1020.9mb 55f 54f
2:00 2.5ft 7s 4 7 mph 1020.9mb 55f 55f
1:00 2.5ft 7s 4 7 mph 1020.7mb 55f 56f
12:00 2ft 7s 4
mph
1020.8mb 55f 57f
ven. 07/25 11:00 2ft 7s 2
mph
1021mb 55f 57f
10:00 2ft 6s 2
mph
1021mb 55f 58f
9:00 2ft 6s 2 4 mph 1020.9mb 57f 57f
8:00 2ft 7s 2
mph
1020.9mb 56f 58f
7:00 2.5ft 6s 2 4 mph 1021.2mb 56f 58f
6:00 2.5ft 6s 2
mph
1021.5mb 56f 59f
5:00 2.5ft 6s 4
mph
1021.8mb 56f 58f
4:00 2.5ft 6s 4 7 mph 1022.1mb 56f 58f
3:00 2.5ft 6s 4
mph
1022.1mb 55f 57f
2:00 2.5ft 7s 4 7 mph 1022.1mb 56f 57f
1:00 2.5ft 7s 7
mph
1022.1mb 55f 57f
12:00 2.5ft 7s 7 9 mph 1022.1mb 55f 56f